Tracking 29892 objects as of 21-Nov-2024
HD Live streaming from Space Station
objects crossing your sky now

METEOR 1-25

Track METEOR 1-25 now!
10-day predictions
METEOR 1-25 is classified as:


NORAD ID: 8845
Int'l Code: 1976-043A
Perigee: 831.0 km
Apogee: 890.2 km
Inclination: 81.3 °
Period: 102.0 minutes
Semi major axis: 7231 km
RCS: 4.2593 m2 (large)
Launch date: May 15, 1976
Source: Commonwealth of Independent States (former USSR) (CIS)
Launch site: PLESETSK MISSILE AND SPACE COMPLEX (PKMTR)
Your satellite tracking list
Your tracking list is empty




NASA's NSSDC Master Catalog

Two Line Element Set (TLE):
1 08845U 76043A   24325.56691354  .00000227  00000-0  11648-3 0  9994
2 08845  81.2605 154.5639 0040919 120.1913 240.3321 14.11724689643980
Source of the keplerian elements: AFSPC